Regional Weather Roundup
Issued by NWS Little Rock, AR

Home | Current Version | Previous Version | Graphics & Text | Print | Product List | Glossary On
Versions: 1 2 3 4 5 6 7 8 9 10 11 12 13 14 15 16 17 18 19 20 21 22 23 24 25 26 27 28 29 30 31 32 33 34 35 36 37 38 39 40 41 42 43 44 45 46 47 48 49 50
843
ASUS44 KLZK 101805
RWRLZK

WEATHER ROUNDUP FOR ARKANSAS
NATIONAL WEATHER SERVICE LITTLE ROCK AR
1200 PM CST SAT DEC 10 2016

NOTE: "FAIR" INDICATES FEW OR NO CLOUDS BELOW 12,000 FEET WITH NO
SIGNIFICANT WEATHER AND/OR OBSTRUCTIONS TO VISIBILITY.

ARZ001-003-010-029-101900-
NORTHWEST ARKANSAS

CITY           SKY/WX    TMP DP  RH WIND       PRES   REMARKS
FAYETTEVILLE   CLOUDY    41  11  29 S9        30.36F
6HR MIN TEMP:  31; 6HR MAX TEMP:  43;

FORT SMITH     CLOUDY    41  20  43 E12       30.41F
6HR MIN TEMP:  34; 6HR MAX TEMP:  41;

HARRISON       PTSUNNY   39  20  46 S13       30.39F
6HR MIN TEMP:  29; 6HR MAX TEMP:  40;

BENTONVILLE    CLOUDY    43   9  24 S10       30.35F
6HR MIN TEMP:  34; 6HR MAX TEMP:  46;

ROGERS         CLOUDY    44   7  21 S12       30.35F
6HR MIN TEMP:  33; 6HR MAX TEMP:  46;

SILOAM SPGS    CLOUDY    43  12  28 S15       30.34F
6HR MIN TEMP:  34; 6HR MAX TEMP:  43;

HIGHFILL       CLOUDY    43  11  27 S13       30.34F
6HR MIN TEMP:  33; 6HR MAX TEMP:  44;

SPRINGDALE     CLOUDY    43   5  21 S12G18    30.36F
$$

ARZ004-005-016-101900-
NORTH CENTRAL ARKANSAS

CITY           SKY/WX    TMP DP  RH WIND       PRES   REMARKS
BATESVILLE     CLOUDY    36  21  55 E5        30.51F
6HR MIN TEMP:  18; 6HR MAX TEMP:  36;

FLIPPIN        CLOUDY    36  18  48 SE9       30.41F
6HR MIN TEMP:  27; 6HR MAX TEMP:  37;

MTN HOME       CLOUDY    33  21  61 S10       30.43F WCI  25
6HR MIN TEMP:  26; 6HR MAX TEMP:  33;

$$

ARZ040-041-101900-
WEST CENTRAL ARKANSAS

CITY           SKY/WX    TMP DP  RH WIND       PRES   REMARKS
MENA           CLOUDY    43  23  45 SE6       30.42F
MOUNT IDA      CLOUDY    40  20  44 SE7       30.43F
6HR MIN TEMP:  33; 6HR MAX TEMP:  41;

$$

ARZ009-017-025-026-028-101900-
NORTHEAST ARKANSAS

CITY           SKY/WX    TMP DP  RH WIND       PRES   REMARKS
CORNING        FAIR      36  21  55 SE9       30.54F
JONESBORO      SUNNY     35  21  56 E8        30.53F WCI  29
6HR MIN TEMP:  20; 6HR MAX TEMP:  35;

NEWPORT        CLOUDY    36  22  56 MISG      30.53F
6HR MIN TEMP:  21; 6HR MAX TEMP:  36;

WALNUT RIDGE   CLOUDY    36  19  51 SE9       30.53F
6HR MIN TEMP:  21; 6HR MAX TEMP:  36;

BLYTHEVILLE    SUNNY     40  17  39 VRB5      30.55F
6HR MIN TEMP:  22; 6HR MAX TEMP:  40;

$$

ARZ022-023-033-042-044-101900-
CENTRAL ARKANSAS

CITY           SKY/WX    TMP DP  RH WIND       PRES   REMARKS
LITTLE ROCK    PTSUNNY   38  23  55 SE8       30.52F
6HR MIN TEMP:  28; 6HR MAX TEMP:  38;

JACKSONVILLE   PTSUNNY   38  22  51 S7        30.50F
6HR MIN TEMP:  26; 6HR MAX TEMP:  38;

SEARCY         CLOUDY    37  23  56 SE6       30.54F
6HR MIN TEMP:  18; 6HR MAX TEMP:  37;

HOT SPRINGS    CLOUDY    40  22  48 S6        30.49F
6HR MIN TEMP:  33; 6HR MAX TEMP:  40;

RUSSELLVILLE   CLOUDY    37  24  59 E6        30.48F
6HR MIN TEMP:  30; 6HR MAX TEMP:  37;

CLINTON        CLOUDY    36  21  55 VRB7      30.49F
$$

ARZ036-101900-
EAST ARKANSAS

CITY           SKY/WX    TMP DP  RH WIND       PRES   REMARKS
WEST MEMPHIS   SUNNY     39  18  42 S3        30.53F
6HR MIN TEMP:  20; 6HR MAX TEMP:  40;

$$

ARZ050-053-066-070-073-101900-
SOUTHWEST ARKANSAS

CITY           SKY/WX    TMP DP  RH WIND       PRES   REMARKS
ARKADELPHIA    CLOUDY    40  24  53 CALM      30.52F
6HR MIN TEMP:  33; 6HR MAX TEMP:  40;

CAMDEN         SUNNY     46  18  31 SE6       30.52F
TEXARKANA      PTSUNNY   43  24  47 SE8       30.49F
6HR MIN TEMP:  33; 6HR MAX TEMP:  43;

EL DORADO      PTSUNNY   43  22  43 SE8       30.51F
6HR MIN TEMP:  32; 6HR MAX TEMP:  44;

DE QUEEN       CLOUDY    41  27  57 SE9       30.45F
6HR MIN TEMP:  35; 6HR MAX TEMP:  42;

$$

ARZ056-057-069-101900-
SOUTHEAST ARKANSAS

CITY           SKY/WX    TMP DP  RH WIND       PRES   REMARKS
PINE BLUFF     FLURRIES  39  27  62 E9        30.52F
6HR MIN TEMP:  29; 6HR MAX TEMP:  39; 6HR PCP: TRACE;

STUTTGART      CLOUDY    37  21  52 SE6       30.53F
6HR MIN TEMP:  27; 6HR MAX TEMP:  37;

MONTICELLO     MOSUNNY   43  21  41 S5        30.52F
6HR MIN TEMP:  24; 6HR MAX TEMP:  43;


$$






USA.gov is the U.S. government's official web portal to all federal, state and local government web resources and services.